Change the Weather History Date:

Sunday, September 23, 2012

  Actual Average Record
Temperature  
Mean Temperature 32 °F -  
Max Temperature 35 °F 29 °F 44 °F (2002)
Min Temperature 28 °F 21 °F 14 °F (1999)
Degree Days  
Heating Degree Days 34    
Moisture  
Dew Point 26 °F    
Average Humidity 77    
Maximum Humidity 93    
Minimum Humidity 59    
Precipitation  
Precipitation 0.00 in - - ()
Sea Level Pressure  
Sea Level Pressure 30.06 in    
Wind  
Wind Speed 4 mph ()    
Max Wind Speed 17 mph    
Max Gust Speed 23 mph    
Visibility 9.0 miles    
Events      
Averages and records for this station are not official NWS values.
T = Trace of Precipitation, MM = Missing Value Source: Averaged Metar Reports

Daily Weather History Graph

Daily Weather History Graph

Search for Another Location

Airport or City:

Trip Planner

Search our weather history database for the weather conditions in past years. The results will help you decide how hot, cold, wet, or windy it might be!

Date:

Astronomy

Sep. 23, 2012 Rise Set
Actual Time 6:57 AM EDT 7:08 PM EDT
Civil Twilight 5:46 AM EDT 8:18 PM EDT
Nautical Twilight 4:11 AM EDT 9:51 PM EDT
Astronomical Twilight 1:36 AM EDT 12:31 AM EDT
Moon No Moon Rise No Moon Set
Length of Visible Light 14h 32m
Length of Day
12h 11m
First Quarter, 60% of the Moon is Illuminated
Sep 23
First Quarter
Sep 29
Full
Oct 8
Last Quarter
Oct 15
New
Oct 21
First Quarter

Hourly Weather History & Observations

Time (EDT) Temp. Windchill Dew Point Humidity Pressure Visibility Wind Dir Wind Speed Gust Speed Precip Events Conditions
12:00 AM 32.0 °F - 30.2 °F 93% 30.01 in 9.0 mi Calm Calm - N/A   Overcast
12:18 AM 32.0 °F - 30.2 °F 93% 29.97 in 9.0 mi East 2.3 mph - N/A   Overcast
1:00 AM 32.0 °F - 28.4 °F 87% 30.01 in 9.0 mi ESE 2.3 mph - N/A   Overcast
1:29 AM 32.0 °F 28.7 °F 28.4 °F 87% 29.97 in 9.0 mi SSE 3.5 mph - N/A   Overcast
2:00 AM 31 °F - 28 °F 84% 30.01 in 9 mi SE 3.5 mph - -   Overcast
2:00 AM 30.2 °F 26.7 °F 28.4 °F 93% 30.01 in 9.0 mi SE 3.5 mph - N/A   Overcast
2:47 AM 32.0 °F 28.7 °F 28.4 °F 87% 29.99 in 9.0 mi SE 3.5 mph - N/A   Overcast
3:00 AM 32.0 °F 28.7 °F 28.4 °F 87% 30.01 in 9.0 mi ESE 3.5 mph - N/A   Overcast
3:25 AM 32.0 °F - 26.6 °F 80% 29.99 in 9.0 mi East 2.3 mph - N/A   Overcast
4:00 AM 32.0 °F - 26.6 °F 80% 30.01 in 9.0 mi NE 2.3 mph - N/A   Overcast
4:37 AM 30.2 °F - 26.6 °F 86% 29.98 in 9.0 mi Calm Calm - N/A   Overcast
5:00 AM 30 °F - 26 °F 81% 30.02 in 9 mi SSE 2.3 mph - -   Overcast
5:00 AM 30.2 °F - 26.6 °F 86% 30.02 in 9.0 mi SSE 2.3 mph - N/A   Overcast
6:00 AM 30.2 °F - 26.6 °F 86% 30.02 in 9.0 mi SE 2.3 mph - N/A   Overcast
7:00 AM 32.0 °F - 26.6 °F 80% 30.03 in 9.0 mi Calm Calm - N/A   Overcast
7:30 AM 28.4 °F - 24.8 °F 86% 30.01 in 9.0 mi SSE 2.3 mph - N/A   Partly Cloudy
8:00 AM 29 °F - 24 °F 76% 30.02 in 9 mi SSE 6.9 mph - -  
8:00 AM 28.4 °F 21.2 °F 24.8 °F 86% 30.02 in 9.0 mi SSE 6.9 mph - N/A   Partly Cloudy
9:00 AM 30.2 °F 24.3 °F 24.8 °F 80% 30.04 in 9.0 mi SSE 5.8 mph - N/A   Partly Cloudy
11:00 AM 32 °F - 25 °F 67% 30.06 in 9 mi SW 2.3 mph - -  
11:00 AM 32.0 °F - 24.8 °F 75% 30.06 in 9.0 mi SW 2.3 mph - N/A   Clear
12:00 PM 33.8 °F 30.8 °F 24.8 °F 70% 30.07 in 9.0 mi WNW 3.5 mph - N/A   Clear
1:00 PM 33.8 °F 30.8 °F 26.6 °F 75% 30.08 in 9.0 mi WNW 3.5 mph - N/A   Partly Cloudy
2:00 PM 35 °F - 27 °F 61% 30.09 in 9 mi SSW 3.5 mph - -  
2:00 PM 35.6 °F 31.7 °F 26.6 °F 70% 30.09 in 9.0 mi SW 4.6 mph - N/A   Partly Cloudy
3:00 PM 35.6 °F - 24.8 °F 65% 30.10 in 9.0 mi West 2.3 mph - N/A   Clear
4:00 PM 35.6 °F 27.1 °F 24.8 °F 65% 30.10 in 9.0 mi East 12.7 mph - N/A   Clear
5:00 PM 35 °F - 26 °F 59% 30.10 in 9 mi East 9.2 mph - -  
5:00 PM 35.6 °F 28.0 °F 26.6 °F 70% 30.10 in 9.0 mi ENE 10.4 mph - N/A   Clear
6:00 PM 35.6 °F 28.6 °F 24.8 °F 65% 30.13 in 9.0 mi South 9.2 mph - N/A   Clear
7:00 PM 35.6 °F 25.9 °F 26.6 °F 70% 30.14 in 9.0 mi East 16.1 mph 21.9 mph N/A   Clear
8:00 PM 35 °F - 26 °F 61% 30.14 in 9 mi East 17.3 mph - -  
8:00 PM 35.6 °F 25.5 °F 26.6 °F 70% 30.14 in 9.0 mi ENE 17.3 mph 23.0 mph N/A   Clear
9:00 PM 33.8 °F 28.6 °F 24.8 °F 70% 30.15 in 9.0 mi East 5.8 mph - N/A   Clear
10:00 PM 33.8 °F 25.8 °F 24.8 °F 70% 30.16 in 9.0 mi ESE 10.4 mph 19.6 mph N/A   Clear
11:00 PM 34 °F - 25 °F 60% 30.17 in 9 mi East 9.2 mph - -  
11:00 PM 33.8 °F 27.0 °F 24.8 °F 70% 30.17 in 9.0 mi ESE 8.1 mph - N/A   Clear